Tracking 19219 objects as of 19-Jul-2018
HD Live streaming from Space Station
objects crossing your sky now

COSMOS 2408

Track COSMOS 2408 now!
10-day predictions
COSMOS 2408 is classified as:


NORAD ID: 28419
Int'l Code: 2004-037A
Perigee: 1,477.0 km
Apogee: 1,503.1 km
Inclination: 82.5 °
Period: 115.6 minutes
Semi major axis: 7861 km
RCS: 0.961 m2 (medium)
Launch date: September 23, 2004
Source: Commonwealth of Independent States (former USSR) (CIS)
Launch site: PLESETSK MISSILE AND SPACE COMPLEX (PKMTR)

Store-dump communications for Russian government and military.
aabbcc
Your satellite tracking list
Your tracking list is empty




NASA's NSSDC Master Catalog

Two Line Element Set (TLE):
1 28419U 04037A   18199.71524267 -.00000038 +00000-0 -33326-3 0  9993
2 28419 082.4852 336.4285 0016563 122.9546 237.3131 12.45612279628203
Source of the keplerian elements: AFSPC